www.pogodaiklimat.ru

Погода и климат >> Архив погоды >> Россия >> Ямало-Ненецкий АО >> Толька


АРХИВ ПОГОДЫ в Тольке

Время (UTC), дата Ветер
(напр.,м/с)
 
Видим.   Явления Облачность Т
(С)
Тd
(С)
f
(%)
Тe
(С)
Тes
(С)
Комфортность P
(гПа)
Po
(гПа)
Тmin
(С)
Tmax
(С)
R
(мм)
R24
(мм)
S
(см)
18 11.01 штиль 0 10 км снежные кристаллы 10/0
[Cs]
-39.0 -43.6 62 -39 -39 опасность
обморожения
1021.3 1016.2
21 11.01 З 1 10 км снежные кристаллы 10/0
[Cs]
-40.5 -45.3 60 -46 -46 опасность
обморожения
1022.5 1017.3
00 12.01 штиль 0 10 км снежные кристаллы 10/0
[Cs]
-42.0 -47.1 57 -42 -42 опасность
обморожения
1023.4 1018.2
03 12.01 штиль 0 20 км {снег} ясно -43.4 -48.5 57 -43 -43 опасность
обморожения
1024.9 1019.7 -43.5 0.2 52
06 12.01 штиль 0 50 км {снег} ясно -41.1 -46.0 59 -41 -41 опасность
обморожения
1026.4 1021.2 -43.7
09 12.01 ЮВ 1 50 км ясно -39.0 -43.7 61 -44 -44 опасность
обморожения
1027.2 1022.1
12 12.01 ЮВ 1 20 км ясно -38.3 -43.0 61 -43 -43 опасность
обморожения
1028.1 1023.0
15 12.01 ЮВ 2 20 км 10/0
[Ci fib]
-35.1 -39.3 65 -43 -43 опасность
обморожения
1028.2 1023.1 -35.1
18 12.01 ЮВ 1 20 км 10/0
[Cs]
-30.4 -34.0 71 -35 -35 опасность
обморожения
1028.1 1023.1
21 12.01 ЮВ 3 20 км 10/0
[Ac trans Ci fib]
-27.4 -30.7 73 -36 -36 опасность
обморожения
1026.6 1021.7
00 13.01 ЮВ 3 20 км 10/0
[Ac trans Ci fib]
-25.2 -28.3 75 -34 -34 опасность
обморожения
1024.9 1020.0
03 13.01 ЮВ 4 20 км 10/0
[Ac As]
-22.4 -25.1 79 -32 -32 опасность
обморожения
1022.6 1017.8 -35.1 53
06 13.01 ЮВ 4
{10}
50 км 10/0
[Ac trans Ci sp]
-20.8 -23.5 79 -30 -30 1020.6 1015.8
09 13.01 ЮВ 5-10
{10}
4000 м слаб. ливневой снег 10/8 300 м
[Cb cap Ac As]
-17.6 -20.0 81 -27 -27 1016.6 1011.9
12 13.01 Ю 4
{10}
4000 м слаб. ливневой снег 10/10 450 м
[Cb cap]
-15.6 -17.8 83 -24 -24 1015.1 1010.4
15 13.01 Ю 3
{10}
4000 м слаб. ливневой снег 10/10 400 м
[Cb cap]
-16.2 -18.5 82 -23 -23 1013.9 1009.3 -15.6 2
18 13.01 ЮВ 3 4000 м слаб. ливневой снег 10/10 450 м
[Cb cap]
-14.4 -16.5 84 -21 -21 1012.3 1007.7
21 13.01 Ю 2 4000 м слаб. ливневой снег 10/10 480 м
[Cb cap]
-13.0 -14.9 86 -18 -18 1010.7 1006.1
00 14.01 Ю 2 4000 м слаб. ливневой снег 10/10 420 м
[Cb cap]
-11.2 -12.9 87 -16 -16 1010.2 1005.7
03 14.01 Ю 2 4000 м слаб. ливневой снег 10/10 420 м
[Cb cap]
-9.1 -10.8 87 -14 -14 1010.5 1006.0 -16.2 1 55
06 14.01 Ю 2 4000 м слаб. ливневой снег 10/8 450 м
[Cb cap Ac As]
-7.5 -9.0 89 -12 -12 1011.9 1007.5
09 14.01 Ю 2 4000 м слаб. ливневой снег 10/8 450 м
[Cb cap Ac As]
-7.5 -9.0 89 -12 -12 1011.9 1007.5
12 14.01 Ю 3 20 км {ливн. осадки} 10/6 300 м
[Sc Ac trans]
-6.5 -8.5 86 -12 -12 1012.1 1007.6
15 14.01 Ю 3 20 км 10/8 600 м
[Sc Ac und]
-5.9 -7.7 87 -12 -12 1011.2 1006.8 -5.9 0.0
18 14.01 Ю 3 10 км слаб. ливневой снег 10/6 300 м
[Cb cap Ac As]
-5.4 -7.2 87 -11 -11 1009.9 1005.5
21 14.01 ЮВ 4 20 км {ливн. осадки} 10/0
[Ac As]
-5.8 -7.4 88 -12 -12 1007.2 1002.8
00 15.01 ЮВ 3 20 км {ливн. осадки} 10/0
[Ac As]
-7.3 -9.5 84 -13 -13 1004.8 1000.4
06 15.01 Ю 3 2000 м ливневой снег 10/8 330 м
[Cb cap Ac As]
-9.7 -11.5 87 -16 -16 1000.7 996.2 -9.8
09 15.01 Ю 3 50 км в посл. час ливневой снег 10/3 300 м
[Cb cap Ci fib]
-9.7 -11.5 87 -16 -16 1000.2 995.7
12 15.01 Ю 2 4000 м слаб. ливневой снег 10/6 420 м
[Cb cap Ac As]
-9.8 -11.5 87 -14 -14 1001.4 996.9
15 15.01 З 4 20 км в посл. час ливневой снег 9/8 300 м
[Cb cap Ac trans]
-8.5 -10.8 83 -15 -15 1003.8 999.4 -7.8 1
18 15.01 З 2
{10}
10 км слаб. ливневой снег 8/8 300 м
[Cb cap]
-12.1 -14.3 84 -17 -17 1007.1 1002.6
21 15.01 З 2 10 км слаб. ливневой снег 6/6 300 м
[Cb cap]
-16.1 -18.0 85 -21 -21 1009.0 1004.4
00 16.01 Ю 1 20 км {ливн. осадки} 10/0
[Ci sp]
-18.6 -20.7 83 -21 -21 1010.0 1005.3
03 16.01 Ю 1 20 км 10/0
[Ci fib]
-17.4 -19.5 84 -20 -20 1010.3 1005.7 -19.2 0.0
06 16.01 Ю 1 50 км 10/0
[Ci fib]
-16.1 -18.2 84 -19 -19 1010.0 1005.4
09 16.01 Ю 1 4000 м слаб. снег 10/0
[As op]
-14.2 -16.3 84 -17 -17 1009.8 1005.2
12 16.01 ЮВ 1 4000 м слаб. снег 10/0
[As op]
-14.9 -16.9 85 -17 -17 1010.2 1005.6
15 16.01 З 4 4000 м слаб. ливневой снег 9/8 330 м
[Cb cap Ac trans]
-12.8 -15.6 79 -20 -20 1010.7 1006.1 -12.5 2
18 16.01 З 2 4000 м слаб. ливневой снег 10/10 420 м
[Cb cap]
-14.0 -16.5 81 -19 -19 1012.3 1007.7
21 16.01 З 2 4000 м слаб. ливневой снег 10/10 360 м
[Cb cap]
-14.5 -16.9 82 -19 -19 1014.2 1009.6
00 17.01 ЮЗ 2 4000 м слаб. ливневой снег 10/10 330 м
[Cb cap]
-15.0 -17.0 85 -20 -20 1016.1 1011.5
03 17.01 ЮЗ 1 4000 м слаб. ливневой снег 9/6 540 м
[Cb cap Ac trans]
-14.6 -16.6 85 -17 -17 1017.7 1013.0 -16.1 0.4 54
06 17.01 ЮЗ 1 50 км в посл. час ливневой снег 10/3 600 м
[Sc Ac und Ci sp]
-15.0 -17.1 84 -18 -17 1019.4 1014.8
09 17.01 Ю 1 50 км 10/0
[Ac und Ci fib]
-15.6 -17.6 85 -18 -18 1020.0 1015.4
12 17.01 Ю 2 20 км {ливн. осадки} 10/0
[Ci fib]
-15.2 -17.5 83 -20 -20 1020.0 1015.4
15 17.01 ЮВ 3 20 км 10/0
[Ci sp]
-13.5 -15.5 85 -20 -20 1018.2 1013.6 -13.5 0.2
18 17.01 Ю 3 20 км 10/0
[Ci sp]
-10.8 -12.8 85 -17 -17 1016.1 1011.5
21 17.01 Ю 3 20 км 10/0
[Ci sp]
-10.5 -12.7 84 -16 -16 1014.2 1009.7
00 18.01 Ю 3 20 км 10/0
[Ci sp]
-9.0 -11.5 82 -15 -15 1011.5 1007.0
03 18.01 Ю 3 20 км 10/0
[Ci sp]
-9.0 -11.5 82 -15 -15 1011.5 1007.0
06 18.01 Ю 4-10
{11}
10 км слаб. ливневой снег 10/8
[Cb calv Ac As]
-8.4 -11.1 81 -15 -15 1007.5 1003.0
09 18.01 Ю 4-10
{11}
10 км слаб. ливневой снег 10/8
[Cb calv Ac As]
-8.4 -11.1 81 -15 -15 1007.5 1003.0
12 18.01 Ю 2 20 км {ливн. осадки, метель} 4/0
[Ac trans]
-9.0 -11.6 81 -13 -13 1007.6 1003.1

 

Местоположение метеостанции Толька (Ямало-Ненецкий АО, Россия): широта 63.98 долгота 82.08 высота над уровнем моря 35 м.

В архиве по умолчанию представлена погода в Тольке за последнюю неделю. Архивные данные за месяц целиком и за предыдущие месяцы, начиная с января 2011 года, Вы можете получить, выбрав интересующий диапазон дат из раскрывающегося списка и нажав кнопку "Ввод!".


*Определитесь, кто Вы:
робот инопланетянин человек

Внимание! Время в таблицах - всемирное. Для получения местного времени необходимо прибавить поправку, которая равна 5 ч.

Смотрите также архив погоды в соседних городах и на ближайших метеорологических станциях:

Погода в Красноселькупске (Ямало-Ненецкий АО, Россия) (192 км)
Погода в Халясавэе (Ямало-Ненецкий АО, Россия) (197 км)
Погода в Тарко-Сале (Ямало-Ненецкий АО, Россия) (229 км)
Погода в Верещагино (Красноярский край, Россия) (263 км)
Погода в Келлоге (Красноярский край, Россия) (268 км)
Погода в Корликах (Ханты-Мансийский АО, Россия) (273 км)
Погода в Уренгое (Ямало-Ненецкий АО, Россия) (279 км)
Погода в Верхнеимбатске (Красноярский край, Россия) (305 км)
Погода в Радужном (Ханты-Мансийский АО, Россия) (314 км)
Погода в Советской Речке (Красноярский край, Россия) (326 км)

Пояснения к столбцам:

Ветер - указаны скорость ветра в м/с - средняя за 10 мин, порывы в срок и между сроками (в фигурных скобках) и направление, откуда дует ветер: С - северный, СВ - северо-восточный, В - восточный, ЮВ - юго-восточный, Ю - южный, ЮЗ - юго-западный, З - западный, СЗ - северо-западный.
Видимость - горизонтальная дальность видимости в метрах или километрах. При видимости от 1 до 10 км при отсутствии осадков обычно наблюдается дымка, при ухудшении видимости до 1 км и менее - туман. В сухую погоду видимость может ухудшаться дымом, пылью или мглою.
Явления - указаны атмосферные явления, наблюдавшиеся в срок или в последний час перед сроком; фигурными скобками обозначены явления, наблюдавшиеся между сроками (за 1-3 часа до срока); квадратными скобками обозначены град или гололедные отложения с указанием их диаметра в мм.
Облачность - указаны через наклонную черту общая и нижняя облачность в баллах и высота нижней границы облаков в метрах; квадратными скобками обозначены формы облаков: Ci - перистые, Cs - перисто-слоистые, Cc - перисто-кучевые, Ac - высококучевые, As - высокослоистые, Sc - слоисто-кучевые, Ns - слоисто-дождевые, Cu - кучевые, Cb - кучево-дождевые. Подробнее классификацию облаков см. в Атласе облаков (PDF).
T - Температура воздуха - температура, измеренная на высоте 2 м над землей.
Td - Температура точки росы - температура, при понижении до которой содержащийся в воздухе водяной пар достигнет насыщения.
f - Относительная влажность воздуха - влажноcть воздуха, измеренная на высоте 2 м над землей.
Te - Эффективная температура - температура, которую ощущает одетый по сезону человек в тени. Характеристика душности погоды. При расчете учитывается влияние влажности воздуха и скорости ветра на теплоощущения человека.
Tes - Эффективная температура на солнце - температура, которую ощущает человек, с поправкой на солнечный нагрев. Характеристика знойности погоды. Зависит от высоты солнца над горизонтом, облачности и скорости ветра. Ночью, в пасмурную погоду, а также при ветре 12 м/с и более поправка равна нулю.
P - Атмосферное давление - приведенное к уровню моря атмосферное давление.
Po - Атмосферное давление - измеренное на уровне метеостанции атмосферное давление.
Tmin - Минимальная температура - минимум температуры воздуха на высоте 2 м над землей.
Tmax - Максимальная температура - максимум температуры воздуха на высоте 2 м над землей.
R - Количество осадков - Количество выпавших осадков за период времени, мм. При наведении курсора мыши на число - период времени, за который выпало указанное количество осадков.
R24 - Количество осадков - Количество выпавших осадков за 24 часа, мм.
S - Снежный покров - Высота снежного покрова, см. При наведении курсора мыши на число - состояние снежного покрова и степень покрытия местности в баллах.